THOR ABLESTAR DEB, 706

Orbit data source: Space-Track

THOR ABLESTAR DEB, 706 is space debris in LEO originally from a launch on Thu, 05 Dec 1963 UTC launched from the Air Force Western Test Range (AFWTR). Debris objects in space refer to the collection of defunct objects orbiting the Earth. Examples of debris include non-operational satellites, rocket bodies, and fragments generated from explosions, collisions, or faulty payload assembly.

Loading next visibility...
Identifier
706, 1963-049D
Orbit
LEO
Last TLE update
19 hours ago
Origin
Manufacturer
Unknown
Mission
Spacecraft
Bus & Motor
Unknown
Mass
Unknown
Launch date (UTC)
1963-12-05 (62 years ago)
Launch vehicle
Unknown
Launch site
Air Force Western Test Range (AFWTR)
Object type
Payload
Rocket body
Debris
Shape & HBR
Unknown
Radar Cross Section
Small (<0.1 m²)

Expand to show TLE details & history

TLE from 19 hours ago
0 THOR ABLESTAR DEB
1 00706U 63049D   25181.94458304  .00000184  00000-0  24665-3 0  9998
2 00706  89.9146  76.1445 0028111  11.2722   5.0273 13.56414666 35699
Epoch: 2025-06-30T22:40Z
TLE epoch observation values (Epoch: 2025-06-30T22:40:11.974Z)
Latitude
16.30891°
Longitude
176.87235°
Altitude
1,030.267 km
Speed
7.348 km/s
True Right ascension
05h 04m 40s
True Declination
16° 13' 12"
Sunlit
Object was in daylight at epoch
Visualization orbit readout
Latitude
-80.0414°
Longitude
176.3567°
Altitude
1,076.502 km
Speed
7.313 km/s
Apparent Right ascension
17h 26m 14s
Apparent Declination
-72° 24' 43"
Sunlit
Object is in daylight
Visualization observer readout
Local Sidereal Time
05:20:00
Azimuth
180.875° SSW
Elevation
-57.495°
Doppler factor
1
Orbital elements
Apogee altitude
1,066.661 km
Perigee altitude
1,024.922 km
Semi-major axis
7,423.928 km
Eccentricity
0.00281
Inclination
89.9146°
RAAN
76.1445°
Arg. of periapsis
11.2722°
True anomaly
Unknown
Mean anomaly
5.0273°
Eccentric anomaly
Unknown
Mean motion
3.39307 °/min
Orbital period
106.1 mins
BSTAR
0.00024665
Loading maneuver chart data...
Loading SW <> Apogee altitude chart data...
Loading historical data...
Loading historical data...
Loading historical data...
Loading historical data...
Loading historical data...
Loading historical data...
Loading historical data...

THOR ABLESTAR DEB Visibility forecast

Observer location: undefined°, undefined°

Span
Click to sort rows by Start time (UTC) header in descending order
Start Az.
Max El. time (UTC)
Max El. Az.
Max El.
End time (UTC)
End Az.
11 mins2025-07-01 18:10:22.432Z211.779° SW2025-07-01 18:15:22.432Z269.417° W30.734°2025-07-01 18:21:22.432Z340.483° N
4 mins2025-07-02 03:34:22.432Z63.058° ENE2025-07-02 03:35:22.432Z72.661° E12.763°2025-07-02 03:38:22.432Z100.481° ESE
11 mins2025-07-02 05:17:22.432Z2.313° NNE2025-07-02 05:22:22.432Z8.407° NNE44.965°2025-07-02 05:28:22.432Z183.828° SSW
4 mins2025-07-02 07:06:22.432Z301.641° NW2025-07-02 07:07:22.432Z291.821° WNW13.36°2025-07-02 07:10:22.432Z263.953° W
11 mins2025-07-02 17:11:22.432Z172.543° S2025-07-02 17:16:22.432Z119.689° SE44.734°2025-07-02 17:22:22.432Z359.703° N
|